Home   Weather   Konstanz   Past weeks

Flag for Germany Past Weather in Konstanz, Baden-Württemberg, Germany — Yesterday and Last 2 Weeks

Now
61 °F

Passing clouds.


Feels Like: 61 °F
Forecast: 53 / 73 °F
Wind: 2 mph from East

Location: Friedrichshafen Airport

Current Time: May 24, 2017 at 12:45:35 am

Latest Report: May 23, 2017 at 11:50 pm


Visibility: N/A

Pressure: 30.15 "Hg

Humidity: 77%

Dew Point: 54 °F

Location of KonstanzLocation

Past Weather in Konstanz — Graph

°F

Konstanz Temperature Yesterday

Maximum temperature yesterday: 77 °F (at 1:50 pm)
Minimum temperature yesterday: 50 °F (at 4:20 am)
Average temperature yesterday: 65 °F

High & Low Weather Summary for the Past Weeks

 TemperatureHumidityPressure
High79 °F (May 17, 3:50 pm)100% (May 8, 11:00 pm)30.42 "Hg (May 8, 11:00 pm)
Low34 °F (May 10, 6:20 am)21% (May 17, 5:20 pm)29.47 "Hg (May 11, 6:20 pm)
Average59 °F69%30.03 "Hg
* Reported May 8 11:00 pm — May 23 11:50 pm, Konstanz. Weather by CustomWeather, © 2017

Note: Actual official high and low records may vary slightly from our data, if they occured in-between our weather recording intervals... More about our weather records

Advertising

Konstanz Weather History for the Previous 24 Hours

Scroll right to see more
 ConditionsComfort  
Time TempWeatherWind HumidityBarometerVisibility
11:50 pm
Tue, May 23
61 °FPassing clouds.2 mph77%30.15 "HgN/A
11:20 pm63 °FClear.1 mph73%30.15 "Hg10 mi
10:50 pm63 °FClear.2 mph68%30.15 "Hg10 mi
10:20 pm64 °FPassing clouds.5 mph64%30.15 "HgN/A
9:50 pm64 °FClear.2 mph60%30.15 "Hg10 mi
9:20 pm68 °FClear.2 mph49%30.12 "Hg10 mi
8:20 pm70 °FPassing clouds.7 mph53%30.12 "HgN/A
7:50 pm72 °FSunny.8 mph47%30.12 "Hg10 mi
7:20 pm75 °FPassing clouds.8 mph41%30.09 "HgN/A
6:50 pm75 °FSunny.9 mph41%30.09 "Hg10 mi
6:20 pm75 °FPassing clouds.6 mph41%30.09 "HgN/A
5:50 pm75 °FSunny.9 mph41%30.09 "Hg10 mi
5:20 pm77 °FSunny.12 mph39%30.09 "Hg10 mi
4:50 pm77 °FSunny.10 mph39%30.09 "Hg10 mi
4:23 pm77 °FPassing clouds.12 mph39%30.09 "HgN/A
4:20 pm77 °FSunny.13 mph39%30.09 "Hg10 mi
3:50 pm77 °FPassing clouds.10 mph39%30.09 "HgN/A
3:20 pm77 °FSunny.12 mph39%30.09 "Hg10 mi
2:50 pm75 °FPassing clouds.10 mph41%30.09 "HgN/A
2:20 pm75 °FPassing clouds.9 mph39%30.09 "HgN/A
1:50 pm77 °FPassing clouds.8 mph36%30.12 "HgN/A
1:20 pm75 °FPassing clouds.9 mph44%30.12 "HgN/A
12:50 pm75 °FPassing clouds.8 mph47%30.12 "HgN/A
12:20 pm72 °FPassing clouds.10 mph50%30.12 "HgN/A
11:50 am72 °FPassing clouds.10 mph50%30.12 "HgN/A
11:20 am70 °FPassing clouds.7 mph53%30.12 "HgN/A
10:50 am66 °FScattered clouds.5 mph60%30.12 "HgN/A
10:20 am66 °FBroken clouds.5 mph64%30.12 "HgN/A
9:50 am64 °FOvercast.1 mph64%30.12 "HgN/A
9:20 am63 °FBroken clouds.1 mph73%30.12 "HgN/A
8:50 am63 °FPartly sunny.1 mph73%30.12 "HgN/A
8:20 am61 °FPassing clouds.1 mph77%30.12 "HgN/A
7:50 am59 °FPassing clouds.No wind77%30.09 "HgN/A
7:20 am55 °FSunny.No wind82%30.09 "Hg10 mi
6:50 am52 °FSunny.No wind94%30.09 "Hg10 mi
6:20 am50 °FSunny.1 mph94%30.09 "Hg10 mi
5:50 am50 °FSunny.No wind94%30.09 "Hg10 mi
5:20 am50 °FPassing clouds.2 mph94%30.07 "HgN/A
4:50 am50 °FPassing clouds.No wind94%30.07 "HgN/A
4:20 am50 °FPassing clouds.No wind94%30.07 "HgN/A
3:50 am52 °FPassing clouds.2 mph88%30.07 "HgN/A
2:50 am52 °FPassing clouds.3 mph88%30.07 "HgN/A
2:20 am52 °FPassing clouds.1 mph88%30.07 "HgN/A
1:50 am54 °FPassing clouds.2 mph82%30.07 "HgN/A
1:20 am54 °FPassing clouds.1 mph82%30.07 "HgN/A
12:50 am54 °FPassing clouds.2 mph82%30.07 "HgN/A
12:20 am54 °FPassing clouds.3 mph82%30.04 "HgN/A
Weather by CustomWeather, © 2017

See weather overviewHow to use our weather pages